This demonstration page uses our WeatherBlox Daily Observations layout. Learn more.

40.92945, -100.16068

Hourly Observations for January 2, 2015

Temp ( °F °C ) Dew Point ( °F °C ) Humidity (%) Winds ( mph kmh ) Pressure ( in mb ) Visibility ( mi km ) Precip ( " mm )
12:15 am 00:15 Mostly Cloudy 13 -10.4 10 -12.2 87 87 WNW 7 11 30.33 1027 10 16.0934 N/A
12:35 am 00:35 Mostly Cloudy 14 -9.9 11 -11.9 85 85 WNW 8 13 30.33 1027 10 16.0934 N/A
12:55 am 00:55 Partly Cloudy 15 -9.6 11 -11.7 85 85 WNW 7 11 30.33 1027 10 16.0934 N/A
1:15 am 01:15 Clear 14 -10.2 10 -12.1 86 86 WNW 7 11 30.33 1027 10 16.0934 N/A
1:35 am 01:35 Partly Cloudy 13 -10.6 10 -12.5 86 86 NW 7 11 30.33 1027 10 16.0934 N/A
1:55 am 01:55 Partly Cloudy 14 -10.1 11 -11.8 88 88 WNW 8 13 30.33 1027 10 16.0934 N/A
2:15 am 02:15 Mostly Cloudy 15 -9.3 12 -10.9 88 88 W 8 13 30.3 1026 10 16.0934 N/A
2:35 am 02:35 Cloudy 19 -7.5 15 -9.5 86 86 WNW 7 11 30.24 1024 10 16.0934 N/A
2:55 am 02:55 Cloudy 19 -7 16 -9.1 85 85 WNW 8 13 30.24 1024 10 16.0934 N/A
3:15 am 03:15 Cloudy 20 -6.8 16 -9.1 84 84 W 6 9 30.27 1025 10 16.0934 N/A
3:35 am 03:35 Cloudy 20 -6.5 16 -8.7 85 85 WNW 5 7 30.24 1024 10 16.0934 N/A
3:55 am 03:55 Cloudy 20 -6.5 17 -8.6 85 85 WNW 6 9 30.24 1024 10 16.0934 N/A
4:15 am 04:15 Partly Cloudy 18 -7.7 15 -9.7 86 86 NW 8 13 30.3 1026 10 16.0934 N/A
4:35 am 04:35 Clear 15 -9.3 12 -11.1 87 87 NW 6 9 30.27 1025 10 16.0934 N/A
4:55 am 04:55 Clear 14 -10.1 11 -11.7 88 88 NW 5 7 30.27 1025 10 16.0934 N/A
5:15 am 05:15 Clear 12 -11 10 -12.5 89 89 NW 3 6 30.33 1027 10 16.0934 N/A
5:35 am 05:35 Clear 12 -11.2 9 -12.6 90 90 NW 5 7 30.3 1026 10 16.0934 N/A
5:55 am 05:55 Clear 10 -12 8 -13.3 90 90 W 8 13 30.3 1026 10 16.0934 N/A
6:15 am 06:15 Clear 11 -11.6 9 -13 89 89 WSW 5 7 30.3 1026 10 16.0934 N/A
6:35 am 06:35 Clear 10 -12 8 -13.3 90 90 SSW 3 6 30.3 1026 10 16.0934 N/A
6:55 am 06:55 Clear 11 -11.6 9 -13 89 89 Calm 30.33 1027 10 16.0934 N/A
7:15 am 07:15 Clear 7 -13.7 5 -15.1 89 89 NW 7 11 30.36 1028 10 16.0934 N/A
7:35 am 07:35 Clear 8 -13.3 5 -14.8 89 89 NW 6 9 30.36 1028 10 16.0934 N/A
7:55 am 07:55 Clear 9 -12.8 6 -14.3 89 89 NW 8 13 30.36 1028 10 16.0934 N/A
8:15 am 08:15 Sunny 9 -12.6 7 -14.1 89 89 W 6 9 30.36 1028 10 16.0934 N/A
8:35 am 08:35 Sunny 10 -12.5 7 -14 89 89 WNW 6 9 30.33 1027 10 16.0934 N/A
8:55 am 08:55 Sunny 10 -12.4 7 -13.9 89 89 NW 7 11 30.33 1027 10 16.0934 N/A
9:15 am 09:15 Sunny 13 -10.5 11 -11.9 90 90 NNW 5 7 30.33 1027 10 16.0934 N/A
9:35 am 09:35 Sunny 17 -8.6 14 -10.2 88 88 NNW 6 9 30.3 1026 10 16.0934 N/A
9:55 am 09:55 Sunny 20 -6.5 16 -8.9 83 83 WNW 5 7 30.27 1025 10 16.0934 N/A
10:15 am 10:15 Sunny 21 -6.1 16 -8.8 81 81 W 5 7 30.27 1025 10 16.0934 N/A
10:35 am 10:35 Sunny 22 -5.8 17 -8.6 81 81 WNW 5 7 30.27 1025 10 16.0934 N/A
10:55 am 10:55 Sunny 23 -5.1 17 -8.1 80 80 WNW 5 7 30.27 1025 10 16.0934 N/A
11:15 am 11:15 Sunny 24 -4.7 18 -7.7 80 80 W 6 9 30.24 1024 10 16.0934 N/A
11:35 am 11:35 Sunny 25 -4.1 19 -7.5 77 77 WNW 7 11 30.21 1023 10 16.0934 N/A
11:55 am 11:55 Sunny 26 -3.1 19 -7.2 74 74 WNW 6 9 30.18 1022 10 16.0934 N/A
12:15 pm 12:15 Sunny 27 -2.9 20 -6.9 74 74 NW 6 9 30.18 1022 10 16.0934 N/A
12:35 pm 12:35 Sunny 27 -2.7 20 -6.8 74 74 NW 3 6 30.18 1022 10 16.0934 N/A
12:55 pm 12:55 Mostly Cloudy 28 -2.1 20 -6.5 72 72 Calm 30.18 1022 10 16.0934 N/A
1:15 pm 13:15 Cloudy 29 -1.5 20 -6.5 69 69 NNW 3 6 30.15 1021 10 16.0934 N/A
1:35 pm 13:35 Mostly Cloudy 31 -0.6 21 -6.2 66 66 Calm 30.12 1020 10 16.0934 N/A
1:55 pm 13:55 Partly Cloudy 32 -0.1 20 -6.7 61 61 Calm 30.12 1020 10 16.0934 N/A
2:15 pm 14:15 Sunny 32 0 20 -6.4 62 62 Calm 30.09 1019 10 16.0934 N/A
2:35 pm 14:35 Sunny 32 0.2 20 -6.6 61 61 Calm 30.09 1019 10 16.0934 N/A
2:55 pm 14:55 Sunny 32 0.2 20 -6.6 61 61 Calm 30.09 1019 10 16.0934 N/A
3:15 pm 15:15 Sunny 33 0.4 20 -6.4 61 61 Calm 30.09 1019 10 16.0934 N/A
3:35 pm 15:35 Sunny 34 0.9 20 -6.7 57 57 Calm 30.06 1018 10 16.0934 N/A
3:55 pm 15:55 Sunny 33 0.6 21 -6.1 61 61 Calm 30.06 1018 10 16.0934 N/A
4:15 pm 16:15 Sunny 33 0.4 22 -5.8 64 64 E 6 9 30.09 1019 10 16.0934 N/A
4:35 pm 16:35 Sunny 32 0 22 -5.5 67 67 SE 5 7 30.09 1019 10 16.0934 N/A
4:55 pm 16:55 Sunny 32 -0.1 22 -5.5 67 67 SSE 7 11 30.09 1019 10 16.0934 N/A
5:15 pm 17:15 Sunny 30 -1 22 -5.5 72 72 SSE 8 13 30.09 1019 10 16.0934 N/A
5:35 pm 17:35 Clear 28 -2.2 22 -5.7 77 77 S 7 11 30.09 1019 10 16.0934 N/A
5:55 pm 17:55 Clear 26 -3.3 21 -5.9 82 82 SSW 9 15 30.12 1020 10 16.0934 N/A
6:15 pm 18:15 Clear 26 -3.3 21 -6.1 81 81 S 7 11 30.09 1019 10 16.0934 N/A
6:35 pm 18:35 Clear 24 -4.7 20 -6.8 85 85 SSW 3 6 30.09 1019 10 16.0934 N/A
6:55 pm 18:55 Clear 24 -4.4 20 -6.8 84 84 SSW 5 7 30.09 1019 10 16.0934 N/A
7:15 pm 19:15 Clear 23 -5.2 19 -7.2 86 86 SW 5 7 30.09 1019 10 16.0934 N/A
7:35 pm 19:35 Clear 23 -5.1 19 -7.3 85 85 W 5 7 30.09 1019 10 16.0934 N/A
7:55 pm 19:55 Clear 20 -6.8 15 -9.2 83 83 S 8 13 30.12 1020 10 16.0934 N/A
8:15 pm 20:15 Clear 18 -7.6 15 -9.7 85 85 Calm 30.12 1020 10 16.0934 N/A
8:35 pm 20:35 Clear 20 -6.8 17 -8.4 89 89 SW 5 7 30.09 1019 10 16.0934 N/A
8:55 pm 20:55 Clear 17 -8.3 14 -9.9 88 88 S 5 7 30.09 1019 10 16.0934 N/A
9:15 pm 21:15 Clear 18 -8 15 -9.4 90 90 SSW 5 7 30.09 1019 10 16.0934 N/A
9:35 pm 21:35 Clear 18 -7.7 15 -9.6 86 86 SSE 5 7 30.09 1019 10 16.0934 N/A
9:55 pm 21:55 Clear 16 -9.1 13 -10.7 88 88 Calm 30.12 1020 10 16.0934 N/A
10:15 pm 22:15 Clear 16 -8.7 13 -10.4 88 88 W 3 6 30.12 1020 10 16.0934 N/A
10:35 pm 22:35 Clear 16 -8.7 14 -10.2 89 89 WSW 6 9 30.12 1020 10 16.0934 N/A
10:55 pm 22:55 Clear 16 -8.8 13 -10.8 86 86 Calm 30.06 1018 10 16.0934 N/A
11:15 pm 23:15 Clear 16 -8.7 13 -10.5 87 87 Calm 30.06 1018 10 16.0934 N/A
11:35 pm 23:35 Clear 14 -10.1 11 -11.4 90 90 Calm 30.09 1019 10 16.0934 N/A
11:55 pm 23:55 Clear 14 -9.9 12 -11.3 90 90 Calm 30.09 1019 10 16.0934 N/A

Powered by AerisWeather